User: anonymous   Login
Location: Fort Wayne
(41.1310°N, 85.1290°W)
Time: 19:51:47
(UTC-04:00)
Language:

Cosmos 2227 Rocket - Orbit

View from above orbital plane
View from above orbital plane
View from above satellite
View from above satellite

Ground track
Ground track

The orbit data is extracted from the following two-line orbital elements,

1 22285U 92093B   14294.81734894  .00000301  00000-0  18030-3 0  4349
2 22285 071.0225 085.7000 0003938 197.2246 162.8744 14.14928392125410
Epoch (UTC): 21 October 2014 19:36:58
Eccentricity: 0.0003938
inclination: 71.0225°
perigee height: 840 km
apogee height: 845 km
right ascension of ascending node: 85.7000°
argument of perigee: 197.2246°
revolutions per day: 14.14928392
mean anomaly at epoch: 162.8744°
orbit number at epoch: 12541

The dashed part of the orbit path shows where the satellite is in the earth's shadow,  

DLR